AirNav   Air Wisconsin Airman Trainee
 
 1409 users online  

5HO Hope Airport
Hope, Alaska, USA

GOING TO HOPE?


FAA INFORMATION EFFECTIVE 25 APRIL 2019

Location

FAA Identifier: 5HO
Lat/Long: 60-54-26.1100N / 149-37-22.1200W
60-54.435167N / 149-37.368667W
60.9072528 / -149.6228111
(estimated)
Elevation: 193.9 ft. / 59 m (estimated)
Variation: 25E (1985)
From city: 1 mile SE of HOPE, AK
Time zone: UTC -8 (UTC -9 during Standard Time)
Zip code: 99605

Airport Operations

Airport use: Open to the public
Activation date: 11/1950
Control tower: no
ARTCC: ANCHORAGE CENTER
FSS: KENAI FLIGHT SERVICE STATION [907-283-8469]
NOTAMs facility: ENA (NOTAM-D service available)
Attendance: UNATNDD
Wind indicator: yes, WINDSOCKS LOCATED AT BOTH ENDS OF RWY 17/35.
Segmented circle: yes

Airport Communications

CTAF: 122.9
WX ASOS at ANC (19 nm NW): 118.4 or 135.5 (907-271-5278)
WX ASOS at MRI (19 nm N): 124.25 or 123.7 (907-271-5277)
WX ASOS at LHD (19 nm NW): 125.6 (907-271-6549)

Nearby radio navigation aids

VOR radial/distance  VOR name  Freq  Var
TEDr130/18.5ANCHORAGE VOR/DME113.1518E

 
NDB name  Hdg/Dist  Freq  Var  ID
CAMPBELL LAKE126/20.133816ECMQ -.-. -- --.-

Airport Services

Airframe service: NONE
Powerplant service: NONE
Bottled oxygen: NONE
Bulk oxygen: NONE

Runway Information

Runway 17/35

Dimensions: 2040 x 60 ft. / 622 x 18 m
Surface: gravel, in fair condition
Runway edge markings: NSTD MKGS RYS 17 & 35; RWY THLDS MKD WITH PLASTIC MARKERS.
Gradient: S.
RUNWAY 17  RUNWAY 35
Latitude: 60-54.601333N60-54.269000N
Longitude: 149-37.327333W149-37.410000W
Elevation: 159.3 ft.193.9 ft.
Traffic pattern: leftleft
Markings: NSTDNSTD
Obstructions: 56 ft. trees, 110 ft. left and right of centerline51 ft. trees, 110 ft. left and right of centerline

Airport Ownership and Management from official FAA records

Ownership: Publicly-owned
Owner: ALASKA DOT&PF CENTRAL REGION
P.O. BOX 196900
ANCHORAGE, AK 99519-6900
Phone 907-338-1466
Manager: DREW MOTSINGER
STATE OF AK - DOTPF, 35200 HOPE HWY
HOPE, AK 99605
Phone 907-269-5672
FOREMAN FROM SILVERTIP STATION.

Airport Operational Statistics

Aircraft based on the field: 8
Single engine airplanes: 8
    
Aircraft operations: avg 40/month *
58% local general aviation
31% transient general aviation
10% air taxi
* for 12-month period ending 31 December 2017

Additional Remarks

BE ALERT RWY CONDITION NOT MONITORED. RECOMMEND VISUAL INSPECTION PRIOR TO LANDING.
SAFETY AREA NORTH END CLEARED 470 FT, SAFETY AREA SOUTH END CLEARED 580 FT.

Instrument Procedures

There are no published instrument procedures at 5HO.

Some nearby airports with instrument procedures:

PANC - Ted Stevens Anchorage International Airport (19 nm NW)
PAMR - Merrill Field Airport (19 nm N)
PAED - Elmendorf Air Force Base (21 nm N)
PAFR - Bryant Army Airfield Heliport (22 nm N)
PAGQ - Big Lake Airport (38 nm N)
 
Loc | Ops | Rwys | IFR | FBO | Links
Com | Nav | Svcs | Stats | Notes

Crowley
 
Area around 5HO (Hope Airport)
 
Road maps at: MapQuest Bing Google
 
Aerial photo
WARNING: Photo may not be current or correct
Aerial photo of 5HO (Hope Airport)
Photo by Jonathan Tack
Photo taken 07-Aug-2006

Do you have a better or more recent aerial photo of Hope Airport that you would like to share? If so, please send us your photo.

 
Sectional chart

 
Airport distance calculator
Flying to Hope Airport? Find the distance to fly.

From to 5HO

Sunrise and sunset
Times for 25-Apr-2019
 Local
(UTC-8)
 Zulu
(UTC)
Morning civil twilight05:1613:16
Sunrise06:0914:09
Sunset21:4405:44
Evening civil twilight22:3706:37

Current date and time
Zulu (UTC)  25-Apr-2019 13:51:30
Local (UTC-8)  25-Apr-2019 05:51:30
 
METAR
PANC 
19nm NW 
251253Z 33007KT 10SM BKN080 BKN160 01/M04 A3007 RMK AO2 SLP185 T00111044
PALH 
19nm NW 
251253Z 31005KT 10SM BKN080 01/M04 A3008 RMK AO2 SLP186 T00111044
PAMR 
20nm N 
251253Z 12003KT 10SM SCT080 M01/M04 A3007 RMK AO2 SLP183 T10061044
PAED 
21nm N 
251256Z 00000KT 10SM SCT080 00/M05 A3006 RMK AO2A SLP176 T10041050
PAFR 
22nm N 
251258Z AUTO 18003KT 10SM FEW080 M02/M05 A3003 RMK AO2 SLP178 T10191046
PATO 
24nm E 
251316Z AUTO 16008G15KT 3SM -SN BR OVC018 01/M01 A3009 RMK AO2 P0000 T00061011 TSNO
PABV 
31nm N 
251256Z AUTO 11005KT 10SM CLR 02/M06 A3008 RMK AO2 SLP195 T00221061 FZRANO
TAF
PANC 
19nm NW 
251123Z 2512/2618 36006KT P6SM BKN080 FM260000 17008KT P6SM SCT080 BKN150 FM260800 35005KT P6SM SKC
PAED 
21nm N 
251100Z 2511/2617 VRB06KT 9999 FEW070 FEW110 QNH3003INS TX08/2522Z TNM03/2513Z
NOTAMs
Click for the latest NOTAMs
NOTAMs are issued by the DoD/FAA and will open in a separate window not controlled by AirNav.

 

 
 

Would you like to see your business listed on this page?

 If your business provides an interesting product or service to pilots, flight crews, aircraft, or users of the Hope Airport, you should consider listing it here.  To start the listing process, click on the button below
 
Add a business
 

Other Pages about Hope Airport

Update a link
 
Copyright © AirNav, LLC. All rights reserved. Privacy Policy  Contact